Airfield :
LOGIN :

Register | Disclaimer

   EN    FR    IT 

 










Legend :    VFR   Marginal VFR   IFR   Intensive IFR   Very Intensive IFR
Visi :
Ceiling :
>= 8 km
>= 3000ft
5 to 8 km
1000 to 3000 ft
1500m to 5 km
500 to 1000 ft
800 to 1500m
200 to 500 ft
< 800m
< 200 ft
Symbols :   Thunderstorms  Fog  Heavy snow  Heavy precipitations  Wind > 20 kt
SIGMETs :     Misc.  Thunderstorms  Icing  Turbulence  Mountain Waves  Volcanic Ashes






- Airport Elevation : 47 ft
- IATA code : BDS


LIBR - Casale Arpt. Brindisi

CURRENT METAR :
  • 041020Z 35013KT 320V020 9999 FEW015 28/22 Q1012

EXPIRED METARs :
  • 040950Z 34014KT 310V010 CAVOK 28/22 Q1012
  • 040920Z 34013KT CAVOK 28/22 Q1012
  • 040850Z 34014KT CAVOK 27/22 Q1012
  • 040820Z 34013KT CAVOK 27/22 Q1012
  • 040750Z 34013KT CAVOK 27/22 Q1012

TAF TAF LIBR
Valid from the 04 at 06:00 until the 05 at 06:00 UTC


040500Z 0406/0506 29008KT 9999 SCT030
BECMG 0407/0409 35013KT
TEMPO 0412/0421 TSRA



MET'MAP, your aeronautical weather chart ! - Copyright ORBIFLY December 2007 - Disclaimer

ORBIFLY MET'MAP TEAM :

Programming & Development : Alexandra Zaïnal
Concept & original design : Baudouin d'Aumeries
Assistance for programming : Marc-Olivier Méhu
Technical & hardware support : Manuel Goepfert

Contact : metmap@orbifly.com




SOURCES & CREDITS :

   NOAA